DELTA 1 DEB, 10716

Orbit data source: Space-Track

DELTA 1 DEB, 10716 is space debris in SSO originally from a launch on Thu, 29 Jul 1976 UTC launched from the Air Force Western Test Range (AFWTR). Debris objects in space refer to the collection of defunct objects orbiting the Earth. Examples of debris include non-operational satellites, rocket bodies, and fragments generated from explosions, collisions, or faulty payload assembly.

Loading next visibility...
Identifier
10716, 1976-077AM
Orbit
SSO
Country
Flag of USUS
Related business
Manufacturer
Unknown
Mission
Spacecraft
Bus & Motor
Unknown
Mass
Unknown
Launch date (UTC)
1976-07-29 (49 years ago)
Launch vehicle
Unknown
Launch site
Air Force Western Test Range (AFWTR)
Object type
Payload
Rocket body
Debris
Shape & HBR
Unknown
Radar Cross Section
Small (<0.1 m²)

Expand to show TLE details & history
Last TLE update: 2 days ago

TLE from 2 days ago
0 DELTA 1 DEB
1 10716U 76077AM  25241.39711838  .00004354  00000-0  18625-1 0  9995
2 10716 102.7399  41.5637 0111812 306.6977 109.1277 12.80913269239413
Epoch: 2025-08-29T09:31Z
TLE epoch observation values (Epoch: 2025-08-29T09:31:51.028Z)
Latitude
55.01179°
Longitude
-97.99486°
Altitude
1,375.801 km
Speed
7.163 km/s
True Right ascension
01h 31m 15s
True Declination
54° 51' 47"
Sunlit
Object was in daylight at epoch
Visualization orbit readout
Latitude
Unknown
Longitude
Unknown
Altitude
Unknown
Speed
Unknown
Apparent Right ascension
Unknown
Apparent Declination
Unknown
Sunlit
N/A
Visualization observer readout
Local Sidereal Time
16:45:59
Azimuth
Unknown
Elevation
Unknown
Doppler factor
Unknown
Orbital elements
Apogee altitude
1,421.614 km
Perigee altitude
1,249.121 km
Semi-major axis
7,713.505 km
Eccentricity
0.01118
Inclination
102.7399°
RAAN
41.5637°
Arg. of periapsis
306.6977°
True anomaly
110.33262°
Mean anomaly
109.1277°
Eccentric anomaly
109.73072°
Mean motion
3.2038 °/min
Orbital period
112.37 mins
BSTAR
0.018625
Loading maneuver chart data...
Computing Atmospheric mass density...
Loading historical data...
Loading historical data...
Loading historical data...
Loading historical data...
Loading historical data...
Loading historical data...
Loading historical data...

Documentation

Showing up to 5 results
|